SCP
0 0 0 0 0 0 0 0 -0 -0 -0 -0 0 0 0 0 0 0 0 0 0 0 0 1 1 1 0 0 0 0 0 0 -0 -0 -0 -0 -1 -1 -1 -1 -0 0 1 1
0 0 0 0 0 0 0 0 0 0 -0 0 0 0 -0 -0 0 0 0 0 0 0 0 0 1 1 0 0 0 0 1 -0 0 0 0 -0 -1 -1 -1 -1 -0 -0 0 0
0 0 0 0 0 0 0 0 0 0 0 0 -0 0 0 0 0 0 -0 0 0 0 0 1 1 1 0 0 0 1 1 1 0 1 1 0 -0 -0 -1 -1 -0 -0 -0 0
0 0 0 0 0 0 0 0 0 0 0 0 0 -0 0 0 0 0 0 0 0 0 0 0 0 0 1 1 1 1 1 2 1 0 0 1 1 1 -0 0 0 0 0 0
0 0 0 0 0 0 0 0 0 0 0 0 0 0 0 0 0 0 0 0 0 0 0 0 0 0 1 1 1 1 1 0 0 0 1 1 1 1 1 2 1 1 1 1
0 0 0 0 0 0 0 0 0 0 0 0 0 0 0 0 0 0 0 0 0 0 0 0 0 0 1 1 1 1 1 0 1 4 4 3 2 2 3 4 3 3 2 2
0 0 0 0 0 0 0 0 0 0 0 0 0 0 0 -0 0 0 0 0 0 0 0 0 0 0 0 1 1 0 1 1 2 3 4 4 4 4 3 2 2 2 2 3
0 0 -0 0 0 0 0 0 0 0 0 0 -0 -0 0 -0 -0 -0 0 0 0 0 0 0 0 1 1 1 1 2 2 2 3 3 2 2 3 3 3 3 3 1 2 2
0 0 0 0 0 0 0 0 0 0 0 0 0 -0 -0 -0 0 0 1 1 0 1 2 2 1 1 1 2 3 2 1 1 1 2 2 3 4 3 3 7 7 4 4 2
0 0 0 0 0 0 0 0 -0 -0 0 0 0 -0 -0 -0 -0 1 1 2 3 4 4 3 2 2 2 1 1 2 2 2 1 2 2 2 2 5 7 7 4 5 6 5
0 0 0 0 0 0 0 0 0 0 -0 -0 -0 -1 -0 -0 1 2 3 4 4 4 5 5 5 3 5 3 1 2 2 2 2 2 1 1 1 4 4 1 4 6 7 7
-0 0 0 0 0 0 0 0 -0 -0 0 -0 -1 -0 -0 2 3 4 3 4 4 3 3 3 3 4 3 3 2 1 1 1 1 1 1 2 1 0 0 0 0 0 0 0
-0 0 0 0 -0 0 0 -0 0 0 0 0 0 1 1 1 1 1 2 2 2 2 2 2 2 2 2 1 1 1 1 0 0 0 1 0 0 0 0 0 0 0 0 0
0 0 0 0 0 0 0 0 0 0 0 0 0 0 0 0 0 0 0 1 1 1 0 0 0 1 1 1 1 1 0 0 0 0 0 1 0 0 0 0 0 0 0 0
-0 0 0 0 0 0 0 0 0 0 0 0 0 0 0 0 0 0 0 0 0 0 0 0 0 1 0 0 1 0 1 1 1 1 1 0 0 0 0 0 0 0 0 0
0 0 0 0 0 0 0 0 0 0 0 0 0 0 0 0 0 0 0 0 0 0 0 0 0 0 1 0 1 1 1 0 0 0 0 0 0 0 0 0 0 0 0 0
0 -0 -0 0 0 0 0 0 0 0 0 0 0 0 0 0 0 0 0 0 0 0 0 0 0 1 1 1 0 0 0 0 0 0 0 0 0 0 0 0 0 0 0 0
0 0 0 0 0 0 0 0 0 0 0 0 0 0 0 0 0 0 0 0 0 0 0 0 0 0 0 1 1 0 0 0 0 0 0 0 0 0 0 0 0 0 0 0
0 0 0 0 0 0 0 0 0 0 0 0 0 0 0 0 0 0 0 0 0 0 0 0 0 0 0 0 0 0 0 0 0 0 0 0 0 0 0 0 0 0 0 0
0 0 0 0 0 0 0 0 0 0 0 0 0 0 0 0 0 0 0 0 0 0 0 0 0 0 0 0 0 0 0 0 0 0 0 0 0 0 0 0 0 0 0 0
0 0 0 0 0 -0 -0 -0 -0 -0 0 0 0 -0 0 0 0 0 0 0 0 0 0 0 0 0 0 0 0 0 0 0 0 0 0 0 0 0 0 0 0 0 0 0
0 0 -0 -0 -0 0 -0 -0 0 0 -0 -0 0 0 0 0 0 0 0 0 0 0 0 0 0 0 0 0 0 0 0 0 0 0 0 0 0 0 0 0 0 0 0 0
0 0 0 0 -0 -0 -0 -0 -0 -0 -0 0 0 0 0 0 0 0 0 0 0 0 0 0 0 0 0 0 0 0 0 0 0 0 0 0 0 0 0 0 0 0 0 0
0 0 0 0 -0 0 0 0 0 0 0 0 0 0 0 0 0 0 0 0 0 0 0 0 0 0 0 0 0 0 0 0 0 0 0 0 0 0 0 0 0 0 0 0
0 -0 -0 -0 -0 0 -0 -0 -0 -0 -0 -0 -0 0 0 0 0 0 0 0 0 0 0 0 0 0 0 0 0 0 0 0 0 0 0 0 0 0 0 0 0 0 0 0
0 0 -0 -0 0 0 -0 -0 -0 -0 -0 -0 -0 -0 -0 0 0 0 0 0 0 0 0 0 0 0 0 0 0 0 0 0 0 0 0 0 0 0 0 0 0 0 0 0
-0 -0 -0 0 0 0 0 0 0 0 0 0 0 0 0 0 0 0 0 0 0 0 0 0 0 0 0 0 0 0 0 0 0 0 0 0 0 0 0 0 0 0 0 0
Wind_Speed_500mb
10 14 12 18 20 21 33 44 46 44 49 39 33 28 23 29 25 32 37 29 43 49 50 60 71 83 87 88 94 93 93 93 92 91 95 97 94 91 89 92 88 83 82 81
15 19 20 27 27 27 28 33 32 43 50 15 29 53 55 56 56 41 49 49 48 52 49 50 64 76 80 86 92 94 95 92 88 91 92 90 89 90 90 94 94 91 91 89
12 14 25 31 43 34 29 26 30 43 36 28 34 26 38 54 59 58 48 45 43 44 44 42 44 53 72 81 88 95 96 93 94 92 92 91 92 91 92 95 96 99 96 95
9 5 19 20 7 12 26 34 41 45 38 31 34 49 56 71 65 68 78 76 76 75 73 68 61 60 59 73 82 89 92 92 94 95 94 94 93 93 95 97 101 103 101 99
10 24 32 35 14 7 9 26 13 33 42 38 49 54 52 54 70 92 94 90 84 76 64 67 67 66 68 73 79 81 83 87 87 88 92 95 96 94 95 100 104 108 107 104
11 16 24 4 19 28 9 30 13 6 14 28 42 30 23 49 73 87 90 89 80 69 65 48 52 60 66 72 76 76 75 81 83 88 91 95 93 94 97 97 102 106 110 107
28 21 17 21 12 2 23 2 10 11 19 28 22 32 45 58 53 68 61 57 55 56 53 52 50 49 57 63 69 60 63 70 77 80 83 84 78 72 64 64 61 70 57 59
23 20 41 16 29 22 10 16 27 35 35 39 43 58 57 73 63 53 52 46 48 52 50 48 38 37 51 59 57 63 63 61 66 70 66 58 68 61 50 60 64 62 71 54
18 15 28 27 38 63 50 46 53 47 57 47 58 61 58 53 40 39 36 39 43 45 41 39 38 33 42 49 51 48 39 38 41 44 46 52 51 45 36 76 87 69 76 94
24 33 44 65 78 65 56 56 54 49 59 56 65 64 59 46 37 36 32 32 31 35 35 27 23 24 23 24 23 24 25 25 27 32 37 41 42 45 48 58 67 76 79 82
30 39 50 67 68 81 68 61 66 58 55 65 56 63 48 37 38 37 37 39 39 39 48 47 40 35 30 23 16 15 22 23 24 30 30 36 41 46 52 59 64 66 62 59
26 31 33 44 38 35 55 63 61 45 68 50 42 33 36 46 49 51 50 50 52 49 50 50 41 37 32 27 22 16 14 14 14 17 23 29 32 36 43 46 51 49 55 63
44 55 58 65 59 71 63 60 55 59 44 23 27 36 50 62 61 57 53 48 49 46 41 39 36 31 27 24 23 20 14 15 16 17 19 23 28 28 26 19 4 9 8 11
64 62 66 66 58 48 47 50 41 32 23 34 46 53 53 61 60 59 54 48 48 44 40 33 29 27 25 21 18 16 16 17 14 12 18 26 30 31 30 28 21 12 6 6
79 80 85 67 52 47 43 37 26 32 53 54 56 56 54 51 52 52 51 55 57 55 50 38 33 31 23 18 15 15 14 17 20 20 26 35 41 37 31 13 9 17 15 13
42 51 51 55 45 37 38 39 31 70 66 68 76 75 71 68 66 66 65 63 67 71 63 57 50 36 30 24 16 15 16 16 21 23 26 36 34 32 25 31 32 27 23 26
41 36 47 45 41 44 47 35 72 69 68 75 78 78 75 71 69 66 65 65 68 69 61 56 49 44 33 26 20 18 18 14 12 14 15 17 26 28 22 14 11 13 22 28
41 34 36 20 21 31 62 41 78 74 75 68 74 80 74 67 62 49 52 52 64 61 53 48 42 37 38 35 32 26 18 14 10 13 15 14 13 18 16 18 24 27 24 22
48 49 30 16 44 64 53 60 63 66 65 65 71 73 63 52 45 49 52 74 65 52 42 33 34 33 29 23 25 27 24 26 20 20 17 14 15 17 13 10 15 15 14 19
79 72 65 65 70 74 71 68 66 79 68 71 80 75 72 66 63 68 76 76 63 57 47 34 21 15 15 17 22 21 16 19 22 19 16 15 19 22 22 21 17 16 20 26
93 93 91 89 84 86 84 78 79 78 72 74 79 72 71 69 69 69 74 73 60 53 51 41 35 35 29 14 11 15 20 18 17 18 18 19 12 11 14 16 14 9 11 16
79 81 80 76 76 83 82 79 77 74 70 69 65 65 66 67 66 69 68 65 61 58 60 55 42 29 22 27 27 19 18 16 7 13 17 22 19 18 17 12 11 8 11 15
76 74 73 74 69 73 76 71 70 68 67 67 66 61 63 62 61 61 65 58 54 55 64 63 53 47 44 51 46 32 27 18 19 16 13 9 11 14 15 13 9 3 8 15
74 72 66 63 62 64 66 63 62 62 59 57 56 54 51 52 52 53 50 46 44 49 50 49 47 48 53 57 61 59 55 48 36 24 20 14 11 12 8 4 9 10 8 3
63 64 66 69 71 62 55 51 53 51 50 51 50 49 46 46 45 45 44 42 43 45 45 44 42 44 49 50 52 53 52 52 49 49 47 38 25 14 20 7 5 6 10 16
53 53 53 52 52 48 45 42 46 46 45 49 49 49 46 42 40 40 37 37 36 38 39 37 36 36 39 41 40 40 40 40 40 38 33 34 38 41 42 41 34 28 24 19
41 42 42 39 41 39 36 35 36 38 39 43 46 42 39 37 36 37 36 35 36 37 36 35 36 37 36 36 35 34 33 33 33 32 32 31 30 24 20 22 21 24 27 30
Wind_Direction_500mb
307 303 301 267 258 236 232 238 233 241 238 232 254 279 290 290 283 271 263 244 236 232 237 241 239 236 237 239 234 231 234 237 239 240 237 239 240 237 236 234 234 233 235 236
300 293 285 277 256 252 247 245 253 257 260 287 260 241 248 261 279 274 277 262 252 249 250 243 241 239 237 236 235 233 235 238 240 240 239 237 237 236 235 235 233 232 233 234
252 312 312 272 245 244 245 238 236 242 249 251 248 236 247 252 247 255 264 271 260 245 251 256 258 251 239 238 235 235 235 240 240 242 242 240 236 233 232 231 231 233 233 235
267 250 242 255 310 264 261 254 233 245 252 249 248 248 239 253 251 257 259 263 265 269 271 267 263 252 247 238 238 239 239 238 240 242 244 242 238 236 233 230 229 230 232 234
228 227 278 294 252 254 248 256 284 265 250 242 251 258 254 244 248 252 257 261 262 267 273 271 260 255 243 235 237 240 242 243 243 243 244 244 242 239 236 232 230 230 232 235
191 241 238 237 245 264 235 267 193 334 287 268 258 249 253 254 253 255 255 258 262 259 265 254 246 250 242 236 235 238 241 245 246 247 245 245 248 245 241 238 236 235 233 235
227 246 256 270 280 11 215 185 326 291 294 294 273 261 263 274 266 263 263 255 253 248 252 255 251 241 237 233 234 243 248 249 250 251 252 252 248 247 245 247 245 242 238 241
224 243 241 250 263 243 338 316 311 309 305 293 281 279 273 269 272 273 268 245 235 233 244 246 241 235 229 229 235 239 245 252 254 255 253 241 243 247 258 262 257 259 251 242
222 225 258 282 292 293 296 296 300 303 300 298 294 279 277 277 274 252 234 231 228 225 223 225 230 228 227 228 230 237 245 250 251 249 248 243 248 232 233 249 239 255 259 243
251 250 262 271 281 280 284 291 296 294 288 291 283 279 272 263 235 227 212 202 190 187 184 177 184 188 192 205 215 223 236 241 242 241 238 234 225 230 236 235 238 241 239 243
273 267 270 271 268 272 284 274 279 289 281 286 279 273 255 222 208 188 173 164 158 145 133 124 120 119 117 119 135 187 205 208 207 220 225 229 226 221 222 224 230 235 240 244
247 263 271 271 287 292 279 270 264 270 283 273 254 233 192 172 162 153 146 142 134 123 118 116 116 114 115 115 115 129 150 163 180 200 210 217 227 226 225 236 245 249 248 247
249 267 263 269 289 282 279 268 257 262 258 195 172 165 145 137 131 128 126 123 117 113 110 111 111 114 114 117 124 132 148 156 166 180 195 210 213 219 208 186 96 195 187 221
248 256 255 261 268 270 253 250 243 228 169 123 107 105 111 112 116 116 114 110 104 99 95 94 97 103 108 113 117 124 131 124 126 154 185 198 202 195 181 158 155 176 216 175
245 242 245 252 266 253 236 231 187 136 112 104 107 106 100 96 96 95 97 100 99 92 83 83 89 90 98 104 117 125 133 138 146 157 170 183 182 174 168 185 272 281 261 207
247 240 233 240 245 231 227 156 157 109 113 107 98 95 93 94 94 93 95 93 89 81 76 70 67 75 84 88 106 144 156 157 175 169 176 187 198 210 234 269 270 269 245 200
240 175 200 210 181 224 101 115 101 102 100 99 100 101 98 93 92 89 86 85 82 81 76 72 68 64 71 80 79 90 108 131 162 165 196 216 236 249 245 210 222 211 168 165
106 132 166 187 180 113 88 72 87 97 95 94 97 96 88 84 77 80 82 86 78 70 68 70 72 70 65 73 79 81 86 98 110 110 109 111 100 101 113 118 123 130 137 147
87 137 175 125 95 96 86 78 78 90 88 93 92 91 91 93 104 100 89 76 74 67 60 63 65 73 80 77 79 79 84 90 91 86 87 92 105 110 105 117 130 143 164 165
48 68 84 83 90 91 92 92 92 92 99 103 100 100 101 97 86 76 73 71 66 61 57 60 63 66 68 72 73 72 72 82 90 93 92 96 99 101 102 103 111 134 148 145
61 60 66 72 76 90 90 94 98 97 96 92 90 87 84 81 79 76 71 68 65 66 66 76 71 60 52 55 89 95 83 81 78 77 69 62 53 60 63 65 75 98 136 159
58 58 67 76 78 85 89 94 96 98 93 92 92 92 89 88 84 80 77 73 68 65 65 60 55 49 54 69 75 85 84 80 57 66 81 89 74 58 54 39 24 3 275 217
64 66 69 70 78 82 82 82 86 87 90 91 90 88 86 85 85 83 79 74 70 67 68 67 64 63 63 62 64 74 77 74 75 87 85 68 57 76 79 69 81 3 62 178
62 64 66 65 64 64 71 79 83 85 86 89 89 90 90 89 88 85 86 88 83 75 70 63 57 53 54 56 58 61 62 59 62 65 63 53 20 22 5 204 201 223 223 186
59 61 61 61 60 61 66 71 76 80 86 89 92 96 97 95 93 93 90 81 75 73 68 59 53 53 55 56 54 56 57 59 64 58 58 58 49 31 38 60 146 168 196 212
52 54 58 60 60 61 64 64 71 77 79 83 86 85 86 88 89 86 80 77 74 70 62 57 57 55 55 55 52 51 49 47 45 45 47 50 51 52 52 56 58 64 72 68
39 33 35 42 44 46 52 67 76 84 85 85 85 82 81 80 79 78 74 71 67 64 64 60 56 53 50 48 46 46 45 41 37 34 34 32 29 21 7 2 3 15 31 40
Wind_Speed_850mb
10 14 12 18 20 21 33 44 46 44 49 39 33 28 23 29 25 32 37 29 43 49 50 60 71 83 87 88 94 93 93 93 92 91 95 97 94 91 89 92 88 83 82 81
15 19 20 27 27 27 28 33 32 43 50 15 29 53 55 56 56 41 49 49 48 52 49 50 64 76 80 86 92 94 95 92 88 91 92 90 89 90 90 94 94 91 91 89
12 14 25 31 43 34 29 26 30 43 36 28 34 26 38 54 59 58 48 45 43 44 44 42 44 53 72 81 88 95 96 93 94 92 92 91 92 91 92 95 96 99 96 95
9 5 19 20 7 12 26 34 41 45 38 31 34 49 56 71 65 68 78 76 76 75 73 68 61 60 59 73 82 89 92 92 94 95 94 94 93 93 95 97 101 103 101 99
10 24 32 35 14 7 9 26 13 33 42 38 49 54 52 54 70 92 94 90 84 76 64 67 67 66 68 73 79 81 83 87 87 88 92 95 96 94 95 100 104 108 107 104
11 16 24 4 19 28 9 30 13 6 14 28 42 30 23 49 73 87 90 89 80 69 65 48 52 60 66 72 76 76 75 81 83 88 91 95 93 94 97 97 102 106 110 107
28 21 17 21 12 2 23 2 10 11 19 28 22 32 45 58 53 68 61 57 55 56 53 52 50 49 57 63 69 60 63 70 77 80 83 84 78 72 64 64 61 70 57 59
23 20 41 16 29 22 10 16 27 35 35 39 43 58 57 73 63 53 52 46 48 52 50 48 38 37 51 59 57 63 63 61 66 70 66 58 68 61 50 60 64 62 71 54
18 15 28 27 38 63 50 46 53 47 57 47 58 61 58 53 40 39 36 39 43 45 41 39 38 33 42 49 51 48 39 38 41 44 46 52 51 45 36 76 87 69 76 94
24 33 44 65 78 65 56 56 54 49 59 56 65 64 59 46 37 36 32 32 31 35 35 27 23 24 23 24 23 24 25 25 27 32 37 41 42 45 48 58 67 76 79 82
30 39 50 67 68 81 68 61 66 58 55 65 56 63 48 37 38 37 37 39 39 39 48 47 40 35 30 23 16 15 22 23 24 30 30 36 41 46 52 59 64 66 62 59
26 31 33 44 38 35 55 63 61 45 68 50 42 33 36 46 49 51 50 50 52 49 50 50 41 37 32 27 22 16 14 14 14 17 23 29 32 36 43 46 51 49 55 63
44 55 58 65 59 71 63 60 55 59 44 23 27 36 50 62 61 57 53 48 49 46 41 39 36 31 27 24 23 20 14 15 16 17 19 23 28 28 26 19 4 9 8 11
64 62 66 66 58 48 47 50 41 32 23 34 46 53 53 61 60 59 54 48 48 44 40 33 29 27 25 21 18 16 16 17 14 12 18 26 30 31 30 28 21 12 6 6
79 80 85 67 52 47 43 37 26 32 53 54 56 56 54 51 52 52 51 55 57 55 50 38 33 31 23 18 15 15 14 17 20 20 26 35 41 37 31 13 9 17 15 13
42 51 51 55 45 37 38 39 31 70 66 68 76 75 71 68 66 66 65 63 67 71 63 57 50 36 30 24 16 15 16 16 21 23 26 36 34 32 25 31 32 27 23 26
41 36 47 45 41 44 47 35 72 69 68 75 78 78 75 71 69 66 65 65 68 69 61 56 49 44 33 26 20 18 18 14 12 14 15 17 26 28 22 14 11 13 22 28
41 34 36 20 21 31 62 41 78 74 75 68 74 80 74 67 62 49 52 52 64 61 53 48 42 37 38 35 32 26 18 14 10 13 15 14 13 18 16 18 24 27 24 22
48 49 30 16 44 64 53 60 63 66 65 65 71 73 63 52 45 49 52 74 65 52 42 33 34 33 29 23 25 27 24 26 20 20 17 14 15 17 13 10 15 15 14 19
79 72 65 65 70 74 71 68 66 79 68 71 80 75 72 66 63 68 76 76 63 57 47 34 21 15 15 17 22 21 16 19 22 19 16 15 19 22 22 21 17 16 20 26
93 93 91 89 84 86 84 78 79 78 72 74 79 72 71 69 69 69 74 73 60 53 51 41 35 35 29 14 11 15 20 18 17 18 18 19 12 11 14 16 14 9 11 16
79 81 80 76 76 83 82 79 77 74 70 69 65 65 66 67 66 69 68 65 61 58 60 55 42 29 22 27 27 19 18 16 7 13 17 22 19 18 17 12 11 8 11 15
76 74 73 74 69 73 76 71 70 68 67 67 66 61 63 62 61 61 65 58 54 55 64 63 53 47 44 51 46 32 27 18 19 16 13 9 11 14 15 13 9 3 8 15
74 72 66 63 62 64 66 63 62 62 59 57 56 54 51 52 52 53 50 46 44 49 50 49 47 48 53 57 61 59 55 48 36 24 20 14 11 12 8 4 9 10 8 3
63 64 66 69 71 62 55 51 53 51 50 51 50 49 46 46 45 45 44 42 43 45 45 44 42 44 49 50 52 53 52 52 49 49 47 38 25 14 20 7 5 6 10 16
53 53 53 52 52 48 45 42 46 46 45 49 49 49 46 42 40 40 37 37 36 38 39 37 36 36 39 41 40 40 40 40 40 38 33 34 38 41 42 41 34 28 24 19
41 42 42 39 41 39 36 35 36 38 39 43 46 42 39 37 36 37 36 35 36 37 36 35 36 37 36 36 35 34 33 33 33 32 32 31 30 24 20 22 21 24 27 30
Wind_Direction_850mb
307 303 301 267 258 236 232 238 233 241 238 232 254 279 290 290 283 271 263 244 236 232 237 241 239 236 237 239 234 231 234 237 239 240 237 239 240 237 236 234 234 233 235 236
300 293 285 277 256 252 247 245 253 257 260 287 260 241 248 261 279 274 277 262 252 249 250 243 241 239 237 236 235 233 235 238 240 240 239 237 237 236 235 235 233 232 233 234
252 312 312 272 245 244 245 238 236 242 249 251 248 236 247 252 247 255 264 271 260 245 251 256 258 251 239 238 235 235 235 240 240 242 242 240 236 233 232 231 231 233 233 235
267 250 242 255 310 264 261 254 233 245 252 249 248 248 239 253 251 257 259 263 265 269 271 267 263 252 247 238 238 239 239 238 240 242 244 242 238 236 233 230 229 230 232 234
228 227 278 294 252 254 248 256 284 265 250 242 251 258 254 244 248 252 257 261 262 267 273 271 260 255 243 235 237 240 242 243 243 243 244 244 242 239 236 232 230 230 232 235
191 241 238 237 245 264 235 267 193 334 287 268 258 249 253 254 253 255 255 258 262 259 265 254 246 250 242 236 235 238 241 245 246 247 245 245 248 245 241 238 236 235 233 235
227 246 256 270 280 11 215 185 326 291 294 294 273 261 263 274 266 263 263 255 253 248 252 255 251 241 237 233 234 243 248 249 250 251 252 252 248 247 245 247 245 242 238 241
224 243 241 250 263 243 338 316 311 309 305 293 281 279 273 269 272 273 268 245 235 233 244 246 241 235 229 229 235 239 245 252 254 255 253 241 243 247 258 262 257 259 251 242
222 225 258 282 292 293 296 296 300 303 300 298 294 279 277 277 274 252 234 231 228 225 223 225 230 228 227 228 230 237 245 250 251 249 248 243 248 232 233 249 239 255 259 243
251 250 262 271 281 280 284 291 296 294 288 291 283 279 272 263 235 227 212 202 190 187 184 177 184 188 192 205 215 223 236 241 242 241 238 234 225 230 236 235 238 241 239 243
273 267 270 271 268 272 284 274 279 289 281 286 279 273 255 222 208 188 173 164 158 145 133 124 120 119 117 119 135 187 205 208 207 220 225 229 226 221 222 224 230 235 240 244
247 263 271 271 287 292 279 270 264 270 283 273 254 233 192 172 162 153 146 142 134 123 118 116 116 114 115 115 115 129 150 163 180 200 210 217 227 226 225 236 245 249 248 247
249 267 263 269 289 282 279 268 257 262 258 195 172 165 145 137 131 128 126 123 117 113 110 111 111 114 114 117 124 132 148 156 166 180 195 210 213 219 208 186 96 195 187 221
248 256 255 261 268 270 253 250 243 228 169 123 107 105 111 112 116 116 114 110 104 99 95 94 97 103 108 113 117 124 131 124 126 154 185 198 202 195 181 158 155 176 216 175
245 242 245 252 266 253 236 231 187 136 112 104 107 106 100 96 96 95 97 100 99 92 83 83 89 90 98 104 117 125 133 138 146 157 170 183 182 174 168 185 272 281 261 207
247 240 233 240 245 231 227 156 157 109 113 107 98 95 93 94 94 93 95 93 89 81 76 70 67 75 84 88 106 144 156 157 175 169 176 187 198 210 234 269 270 269 245 200
240 175 200 210 181 224 101 115 101 102 100 99 100 101 98 93 92 89 86 85 82 81 76 72 68 64 71 80 79 90 108 131 162 165 196 216 236 249 245 210 222 211 168 165
106 132 166 187 180 113 88 72 87 97 95 94 97 96 88 84 77 80 82 86 78 70 68 70 72 70 65 73 79 81 86 98 110 110 109 111 100 101 113 118 123 130 137 147
87 137 175 125 95 96 86 78 78 90 88 93 92 91 91 93 104 100 89 76 74 67 60 63 65 73 80 77 79 79 84 90 91 86 87 92 105 110 105 117 130 143 164 165
48 68 84 83 90 91 92 92 92 92 99 103 100 100 101 97 86 76 73 71 66 61 57 60 63 66 68 72 73 72 72 82 90 93 92 96 99 101 102 103 111 134 148 145
61 60 66 72 76 90 90 94 98 97 96 92 90 87 84 81 79 76 71 68 65 66 66 76 71 60 52 55 89 95 83 81 78 77 69 62 53 60 63 65 75 98 136 159
58 58 67 76 78 85 89 94 96 98 93 92 92 92 89 88 84 80 77 73 68 65 65 60 55 49 54 69 75 85 84 80 57 66 81 89 74 58 54 39 24 3 275 217
64 66 69 70 78 82 82 82 86 87 90 91 90 88 86 85 85 83 79 74 70 67 68 67 64 63 63 62 64 74 77 74 75 87 85 68 57 76 79 69 81 3 62 178
62 64 66 65 64 64 71 79 83 85 86 89 89 90 90 89 88 85 86 88 83 75 70 63 57 53 54 56 58 61 62 59 62 65 63 53 20 22 5 204 201 223 223 186
59 61 61 61 60 61 66 71 76 80 86 89 92 96 97 95 93 93 90 81 75 73 68 59 53 53 55 56 54 56 57 59 64 58 58 58 49 31 38 60 146 168 196 212
52 54 58 60 60 61 64 64 71 77 79 83 86 85 86 88 89 86 80 77 74 70 62 57 57 55 55 55 52 51 49 47 45 45 47 50 51 52 52 56 58 64 72 68
39 33 35 42 44 46 52 67 76 84 85 85 85 82 81 80 79 78 74 71 67 64 64 60 56 53 50 48 46 46 45 41 37 34 34 32 29 21 7 2 3 15 31 40